Time,TemperatureF,DewpointF,PressureIn,WindDirection,WindDirectionDegrees,WindSpeedMPH,WindSpeedGustMPH,Humidity,HourlyPrecipIn,Conditions,Clouds,dailyrainin,SoftwareType,DateUTC
2013-05-15 00:01:00,59.9,45.1,30.11,SSW,194,5.0,6.0,58,0.00,,---,0.00,VWS V14.01,2013-05-15 04:01:00,
2013-05-15 00:06:00,60.0,45.2,30.11,SSW,197,5.0,6.0,58,0.00,,---,0.00,VWS V14.01,2013-05-15 04:06:00,
2013-05-15 00:11:00,59.9,45.1,30.11,South,176,3.0,5.0,58,0.00,,---,0.00,VWS V14.01,2013-05-15 04:11:00,
2013-05-15 00:16:00,59.8,45.0,30.11,SSE,152,4.0,5.0,58,0.00,,---,0.00,VWS V14.01,2013-05-15 04:16:00,
2013-05-15 00:21:00,59.9,45.1,30.11,South,176,3.0,5.0,58,0.00,,---,0.00,VWS V14.01,2013-05-15 04:21:00,
2013-05-15 00:26:00,59.9,45.1,30.11,SE,132,3.0,5.0,58,0.00,,---,0.00,VWS V14.01,2013-05-15 04:26:00,
2013-05-15 00:31:00,60.0,44.7,30.11,South,191,3.0,8.0,57,0.00,,---,0.00,VWS V14.01,2013-05-15 04:31:00,
2013-05-15 00:36:00,60.1,44.8,30.11,SSW,209,3.0,5.0,57,0.00,,---,0.00,VWS V14.01,2013-05-15 04:36:00,
2013-05-15 00:41:00,60.1,44.8,30.11,SSW,197,4.0,5.0,57,0.00,,---,0.00,VWS V14.01,2013-05-15 04:41:00,
2013-05-15 00:46:00,60.0,45.2,30.11,SSW,205,5.0,6.0,58,0.00,,---,0.00,VWS V14.01,2013-05-15 04:46:00,
2013-05-15 00:52:00,59.8,45.0,30.11,South,186,5.0,5.0,58,0.00,,---,0.00,VWS V14.01,2013-05-15 04:52:00,
2013-05-15 00:57:00,59.6,45.3,30.11,South,188,3.0,5.0,59,0.00,,---,0.00,VWS V14.01,2013-05-15 04:57:00,
2013-05-15 01:01:00,59.5,45.2,30.10,SSW,207,6.0,6.0,59,0.00,,---,0.00,VWS V14.01,2013-05-15 05:01:00,
2013-05-15 01:07:00,59.4,45.1,30.10,SSW,200,4.0,6.0,59,0.00,,---,0.00,VWS V14.01,2013-05-15 05:07:00,
2013-05-15 01:12:00,59.3,45.0,30.10,SSW,197,3.0,6.0,59,0.00,,---,0.00,VWS V14.01,2013-05-15 05:12:00,
2013-05-15 01:17:00,59.3,45.0,30.10,SW,215,5.0,6.0,59,0.00,,---,0.00,VWS V14.01,2013-05-15 05:17:00,
2013-05-15 01:22:00,59.3,45.0,30.10,SW,218,8.0,8.0,59,0.00,,---,0.00,VWS V14.01,2013-05-15 05:22:00,
2013-05-15 01:27:00,59.2,45.3,30.10,SSW,198,4.0,8.0,60,0.00,,---,0.00,VWS V14.01,2013-05-15 05:27:00,
2013-05-15 01:32:00,59.1,45.2,30.10,SW,219,8.0,8.0,60,0.00,,---,0.00,VWS V14.01,2013-05-15 05:32:00,
2013-05-15 01:37:00,59.1,45.2,30.09,South,184,6.0,9.0,60,0.00,,---,0.00,VWS V14.01,2013-05-15 05:37:00,
2013-05-15 01:42:00,59.1,45.2,30.09,SW,220,8.0,9.0,60,0.00,,---,0.00,VWS V14.01,2013-05-15 05:42:00,
2013-05-15 01:47:00,59.2,45.3,30.09,SW,219,5.0,8.0,60,0.00,,---,0.00,VWS V14.01,2013-05-15 05:47:00,
2013-05-15 01:52:00,59.2,45.3,30.09,SSW,203,6.0,7.0,60,0.00,,---,0.00,VWS V14.01,2013-05-15 05:52:00,
2013-05-15 01:57:00,59.1,45.7,30.09,SW,235,5.0,8.0,61,0.00,,---,0.00,VWS V14.01,2013-05-15 05:57:00,
2013-05-15 02:02:00,59.2,45.8,30.09,SSW,201,3.0,6.0,61,0.00,,---,0.00,VWS V14.01,2013-05-15 06:02:00,
2013-05-15 02:07:00,59.2,45.8,30.09,SW,236,7.0,10.0,61,0.00,,---,0.00,VWS V14.01,2013-05-15 06:07:00,
2013-05-15 02:12:00,59.3,45.9,30.09,SSW,196,3.0,9.0,61,0.00,,---,0.00,VWS V14.01,2013-05-15 06:12:00,
2013-05-15 02:17:00,59.4,46.0,30.09,SSW,200,3.0,12.0,61,0.00,,---,0.00,VWS V14.01,2013-05-15 06:17:00,
2013-05-15 02:22:00,59.5,46.1,30.09,South,183,5.0,10.0,61,0.00,,---,0.00,VWS V14.01,2013-05-15 06:22:00,
2013-05-15 02:27:00,59.5,46.1,30.09,SSW,211,6.0,8.0,61,0.00,,---,0.00,VWS V14.01,2013-05-15 06:27:00,
2013-05-15 02:32:00,59.5,46.1,30.08,SSW,205,8.0,9.0,61,0.00,,---,0.00,VWS V14.01,2013-05-15 06:32:00,
2013-05-15 02:37:00,59.4,46.4,30.08,SSW,201,5.0,8.0,62,0.00,,---,0.00,VWS V14.01,2013-05-15 06:37:00,
2013-05-15 02:42:00,59.3,46.3,30.08,SSW,197,6.0,6.0,62,0.00,,---,0.00,VWS V14.01,2013-05-15 06:42:00,
2013-05-15 02:47:00,59.2,46.6,30.09,SW,214,3.0,9.0,63,0.00,,---,0.00,VWS V14.01,2013-05-15 06:47:00,
2013-05-15 02:52:00,59.1,46.5,30.08,SSW,193,3.0,7.0,63,0.00,,---,0.00,VWS V14.01,2013-05-15 06:52:00,
2013-05-15 02:57:00,59.1,46.5,30.09,SSW,201,2.0,8.0,63,0.00,,---,0.00,VWS V14.01,2013-05-15 06:57:00,
2013-05-15 03:02:00,59.0,46.8,30.09,SW,224,5.0,7.0,64,0.00,,---,0.00,VWS V14.01,2013-05-15 07:02:00,
2013-05-15 03:07:00,58.9,46.8,30.09,SSW,203,2.0,6.0,64,0.00,,---,0.00,VWS V14.01,2013-05-15 07:07:00,
2013-05-15 03:12:00,58.8,46.7,30.08,SSW,207,4.0,8.0,64,0.00,,---,0.00,VWS V14.01,2013-05-15 07:12:00,
2013-05-15 03:17:00,58.7,47.0,30.08,SW,217,5.0,11.0,65,0.00,,---,0.00,VWS V14.01,2013-05-15 07:17:00,
2013-05-15 03:22:00,58.6,46.9,30.08,SW,231,6.0,10.0,65,0.00,,---,0.00,VWS V14.01,2013-05-15 07:22:00,
2013-05-15 03:27:00,58.4,47.1,30.08,SW,219,9.0,10.0,66,0.00,,---,0.00,VWS V14.01,2013-05-15 07:27:00,
2013-05-15 03:32:00,58.3,47.0,30.08,SW,214,7.0,9.0,66,0.00,,---,0.00,VWS V14.01,2013-05-15 07:32:00,
2013-05-15 03:37:00,58.4,47.1,30.08,SW,224,5.0,11.0,66,0.00,,---,0.00,VWS V14.01,2013-05-15 07:37:00,
2013-05-15 03:42:00,58.3,47.4,30.08,South,176,5.0,7.0,67,0.00,,---,0.00,VWS V14.01,2013-05-15 07:42:00,
2013-05-15 03:47:00,58.3,47.4,30.08,SW,233,10.0,10.0,67,0.00,,---,0.00,VWS V14.01,2013-05-15 07:47:00,
2013-05-15 03:53:00,58.1,47.2,30.08,SSW,205,2.0,5.0,67,0.00,,---,0.00,VWS V14.01,2013-05-15 07:53:00,
2013-05-15 03:58:00,58.0,47.5,30.08,South,190,3.0,5.0,68,0.00,,---,0.00,VWS V14.01,2013-05-15 07:58:00,
2013-05-15 04:03:00,57.8,47.3,30.08,SSW,205,3.0,7.0,68,0.00,,---,0.00,VWS V14.01,2013-05-15 08:03:00,
2013-05-15 04:08:00,57.7,47.6,30.08,South,184,2.0,6.0,69,0.00,,---,0.00,VWS V14.01,2013-05-15 08:08:00,
2013-05-15 04:13:00,57.5,47.4,30.08,SSW,210,4.0,6.0,69,0.00,,---,0.00,VWS V14.01,2013-05-15 08:13:00,
2013-05-15 04:18:00,57.4,47.7,30.08,South,186,4.0,7.0,70,0.00,,---,0.00,VWS V14.01,2013-05-15 08:18:00,
2013-05-15 04:23:00,57.4,47.7,30.08,SSW,208,6.0,8.0,70,0.00,,---,0.00,VWS V14.01,2013-05-15 08:23:00,
2013-05-15 04:28:00,57.3,47.6,30.07,South,186,4.0,8.0,70,0.00,,---,0.00,VWS V14.01,2013-05-15 08:28:00,
2013-05-15 04:33:00,57.3,48.0,30.07,SW,222,7.0,8.0,71,0.00,,---,0.00,VWS V14.01,2013-05-15 08:33:00,
2013-05-15 04:38:00,57.3,48.0,30.08,SW,233,4.0,8.0,71,0.00,,---,0.00,VWS V14.01,2013-05-15 08:38:00,
2013-05-15 04:43:00,57.3,48.0,30.08,SSW,203,4.0,5.0,71,0.00,,---,0.00,VWS V14.01,2013-05-15 08:43:00,
2013-05-15 04:48:00,57.4,48.1,30.08,SSW,208,4.0,5.0,71,0.00,,---,0.00,VWS V14.01,2013-05-15 08:48:00,
2013-05-15 04:53:00,57.3,48.0,30.08,SSW,200,2.0,4.0,71,0.00,,---,0.00,VWS V14.01,2013-05-15 08:53:00,
2013-05-15 04:58:00,57.2,48.3,30.08,SSW,210,3.0,4.0,72,0.00,,---,0.00,VWS V14.01,2013-05-15 08:58:00,
2013-05-15 05:03:00,57.2,48.3,30.08,WSW,242,6.0,6.0,72,0.00,,---,0.00,VWS V14.01,2013-05-15 09:03:00,
2013-05-15 05:08:00,57.1,48.2,30.08,SSW,205,4.0,6.0,72,0.00,,---,0.00,VWS V14.01,2013-05-15 09:08:00,
2013-05-15 05:13:00,57.0,48.4,30.08,SSW,197,5.0,6.0,73,0.00,,---,0.00,VWS V14.01,2013-05-15 09:13:00,
2013-05-15 05:18:00,56.7,48.5,30.08,SW,215,3.0,7.0,74,0.00,,---,0.00,VWS V14.01,2013-05-15 09:18:00,
2013-05-15 05:23:00,56.5,48.3,30.08,SSW,203,5.0,7.0,74,0.00,,---,0.00,VWS V14.01,2013-05-15 09:23:00,
2013-05-15 05:28:00,56.5,48.7,30.08,South,190,3.0,5.0,75,0.00,,---,0.00,VWS V14.01,2013-05-15 09:28:00,
2013-05-15 05:33:00,56.6,48.8,30.08,SW,224,3.0,7.0,75,0.00,,---,0.00,VWS V14.01,2013-05-15 09:33:00,
2013-05-15 05:38:00,56.7,48.9,30.08,SW,218,3.0,6.0,75,0.00,,---,0.00,VWS V14.01,2013-05-15 09:38:00,
2013-05-15 05:43:00,56.7,48.9,30.08,SSW,210,2.0,6.0,75,0.00,,---,0.00,VWS V14.01,2013-05-15 09:43:00,
2013-05-15 05:48:00,56.6,48.8,30.08,SSW,205,2.0,6.0,75,0.00,,---,0.00,VWS V14.01,2013-05-15 09:48:00,
2013-05-15 05:53:00,56.6,48.8,30.08,SSW,208,5.0,6.0,75,0.00,,---,0.00,VWS V14.01,2013-05-15 09:53:00,
2013-05-15 05:58:00,56.5,49.0,30.08,WSW,243,4.0,5.0,76,0.00,,---,0.00,VWS V14.01,2013-05-15 09:58:00,
2013-05-15 06:03:00,56.4,48.9,30.08,SSW,200,1.0,4.0,76,0.00,,---,0.00,VWS V14.01,2013-05-15 10:03:00,
2013-05-15 06:08:00,56.3,48.8,30.09,SSW,197,2.0,4.0,76,0.00,,---,0.00,VWS V14.01,2013-05-15 10:08:00,
2013-05-15 06:13:00,56.2,49.1,30.09,South,172,2.0,3.0,77,0.00,,---,0.00,VWS V14.01,2013-05-15 10:13:00,
2013-05-15 06:18:00,56.1,49.0,30.09,SSE,155,2.0,3.0,77,0.00,,---,0.00,VWS V14.01,2013-05-15 10:18:00,
2013-05-15 06:23:00,56.1,49.0,30.09,SSE,165,2.0,3.0,77,0.00,,---,0.00,VWS V14.01,2013-05-15 10:23:00,
2013-05-15 06:28:00,56.1,49.0,30.10,South,181,1.0,3.0,77,0.00,,---,0.00,VWS V14.01,2013-05-15 10:28:00,
2013-05-15 06:33:00,56.1,49.0,30.10,South,173,2.0,4.0,77,0.00,,---,0.00,VWS V14.01,2013-05-15 10:33:00,
2013-05-15 06:38:00,56.1,49.0,30.10,South,176,2.0,2.0,77,0.00,,---,0.00,VWS V14.01,2013-05-15 10:38:00,
2013-05-15 06:43:00,56.0,49.2,30.10,SSE,160,1.0,1.0,78,0.00,,---,0.00,VWS V14.01,2013-05-15 10:43:00,
2013-05-15 06:48:00,56.1,49.3,30.11,South,170,1.0,2.0,78,0.00,,---,0.00,VWS V14.01,2013-05-15 10:48:00,
2013-05-15 06:53:00,56.4,49.6,30.11,SSW,192,3.0,3.0,78,0.00,,---,0.00,VWS V14.01,2013-05-15 10:53:00,
2013-05-15 06:58:00,57.0,49.9,30.11,South,169,3.0,3.0,77,0.00,,---,0.00,VWS V14.01,2013-05-15 10:58:00,
2013-05-15 07:03:00,57.4,49.9,30.11,SSW,205,2.0,4.0,76,0.00,,---,0.00,VWS V14.01,2013-05-15 11:03:00,
2013-05-15 07:09:00,57.6,49.8,30.11,SSW,201,3.0,4.0,75,0.00,,---,0.00,VWS V14.01,2013-05-15 11:09:00,
2013-05-15 07:15:00,57.7,49.8,30.10,South,186,2.0,4.0,75,0.00,,---,0.00,VWS V14.01,2013-05-15 11:15:00,
2013-05-15 07:20:00,58.0,50.1,30.10,SW,217,2.0,4.0,75,0.00,,---,0.00,VWS V14.01,2013-05-15 11:20:00,
2013-05-15 07:25:00,58.2,50.3,30.11,SSW,204,3.0,5.0,75,0.00,,---,0.00,VWS V14.01,2013-05-15 11:25:00,
2013-05-15 07:30:00,58.4,50.5,30.11,South,170,2.0,5.0,75,0.00,,---,0.00,VWS V14.01,2013-05-15 11:30:00,
2013-05-15 07:35:00,58.8,50.9,30.11,South,183,4.0,5.0,75,0.00,,---,0.00,VWS V14.01,2013-05-15 11:35:00,
2013-05-15 07:40:00,59.1,50.8,30.11,SW,214,1.0,6.0,74,0.00,,---,0.00,VWS V14.01,2013-05-15 11:40:00,
2013-05-15 07:45:00,59.2,51.3,30.11,SSE,165,2.0,6.0,75,0.00,,---,0.00,VWS V14.01,2013-05-15 11:45:00,
2013-05-15 07:50:00,59.4,51.5,30.11,South,191,3.0,6.0,75,0.00,,---,0.00,VWS V14.01,2013-05-15 11:50:00,
2013-05-15 07:55:00,59.9,52.0,30.11,South,183,4.0,4.0,75,0.00,,---,0.00,VWS V14.01,2013-05-15 11:55:00,
2013-05-15 08:01:00,60.5,52.2,30.11,SSE,159,3.0,3.0,74,0.00,,---,0.00,VWS V14.01,2013-05-15 12:01:00,
2013-05-15 08:06:00,60.8,52.5,30.11,South,186,3.0,5.0,74,0.00,,---,0.00,VWS V14.01,2013-05-15 12:06:00,
2013-05-15 08:11:00,61.1,52.8,30.11,SW,221,2.0,6.0,74,0.00,,---,0.00,VWS V14.01,2013-05-15 12:11:00,
2013-05-15 08:16:00,61.6,53.2,30.11,West,259,2.0,2.0,74,0.00,,---,0.00,VWS V14.01,2013-05-15 12:16:00,
2013-05-15 08:21:00,62.1,53.7,30.11,WSW,245,4.0,4.0,74,0.00,,---,0.00,VWS V14.01,2013-05-15 12:21:00,
2013-05-15 08:26:00,62.7,53.9,30.11,WSW,243,3.0,5.0,73,0.00,,---,0.00,VWS V14.01,2013-05-15 12:26:00,
2013-05-15 08:31:00,63.3,54.5,30.11,SSW,196,4.0,4.0,73,0.00,,---,0.00,VWS V14.01,2013-05-15 12:31:00,
2013-05-15 08:37:00,63.6,54.4,30.11,SW,234,4.0,6.0,72,0.00,,---,0.00,VWS V14.01,2013-05-15 12:37:00,
2013-05-15 08:42:00,64.1,54.9,30.11,WSW,238,4.0,6.0,72,0.00,,---,0.00,VWS V14.01,2013-05-15 12:42:00,
2013-05-15 08:47:00,64.2,55.4,30.12,SW,215,2.0,2.0,73,0.00,,---,0.00,VWS V14.01,2013-05-15 12:47:00,
2013-05-15 08:52:00,64.7,55.1,30.11,SW,235,4.0,7.0,71,0.00,,---,0.00,VWS V14.01,2013-05-15 12:52:00,
2013-05-15 08:57:00,65.2,55.6,30.12,WNW,293,0.0,2.0,71,0.00,,---,0.00,VWS V14.01,2013-05-15 12:57:00,
2013-05-15 09:02:00,65.6,55.6,30.12,SW,225,0.0,9.0,70,0.00,,---,0.00,VWS V14.01,2013-05-15 13:02:00,
2013-05-15 09:07:00,65.8,55.4,30.12,West,260,9.0,12.0,69,0.00,,---,0.00,VWS V14.01,2013-05-15 13:07:00,
2013-05-15 09:12:00,65.8,55.4,30.12,WSW,246,7.0,9.0,69,0.00,,---,0.00,VWS V14.01,2013-05-15 13:12:00,
2013-05-15 09:17:00,66.1,56.0,30.11,SW,229,6.0,9.0,70,0.00,,---,0.00,VWS V14.01,2013-05-15 13:17:00,
2013-05-15 09:22:00,66.7,56.6,30.11,WSW,241,6.0,8.0,70,0.00,,---,0.00,VWS V14.01,2013-05-15 13:22:00,
2013-05-15 09:27:00,67.1,57.0,30.11,WNW,290,6.0,10.0,70,0.00,,---,0.00,VWS V14.01,2013-05-15 13:27:00,
2013-05-15 09:33:00,67.6,56.7,30.12,WSW,257,5.0,9.0,68,0.00,,---,0.00,VWS V14.01,2013-05-15 13:33:00,
2013-05-15 09:38:00,68.0,57.1,30.11,West,260,4.0,12.0,68,0.00,,---,0.00,VWS V14.01,2013-05-15 13:38:00,
2013-05-15 09:43:00,68.6,57.2,30.11,SW,228,6.0,11.0,67,0.00,,---,0.00,VWS V14.01,2013-05-15 13:43:00,
2013-05-15 09:48:00,69.0,58.0,30.11,WSW,243,9.0,9.0,68,0.00,,---,0.00,VWS V14.01,2013-05-15 13:48:00,
2013-05-15 09:53:00,69.6,57.8,30.11,SW,214,7.0,7.0,66,0.00,,---,0.00,VWS V14.01,2013-05-15 13:53:00,
2013-05-15 09:58:00,70.3,58.4,30.11,WNW,288,3.0,4.0,66,0.00,,---,0.00,VWS V14.01,2013-05-15 13:58:00,
2013-05-15 10:04:00,70.8,58.0,30.11,SW,231,6.0,10.0,64,0.00,,---,0.00,VWS V14.01,2013-05-15 14:04:00,
2013-05-15 10:09:00,71.2,58.8,30.11,West,270,8.0,11.0,65,0.00,,---,0.00,VWS V14.01,2013-05-15 14:09:00,
2013-05-15 10:14:00,71.6,58.3,30.11,SSW,198,1.0,8.0,63,0.00,,---,0.00,VWS V14.01,2013-05-15 14:14:00,
2013-05-15 10:19:00,72.0,59.2,30.11,WSW,246,1.0,10.0,64,0.00,,---,0.00,VWS V14.01,2013-05-15 14:19:00,
2013-05-15 10:24:00,72.7,58.0,30.11,SW,214,8.0,10.0,60,0.00,,---,0.00,VWS V14.01,2013-05-15 14:24:00,
2013-05-15 10:29:00,72.6,57.9,30.11,West,262,9.0,13.0,60,0.00,,---,0.00,VWS V14.01,2013-05-15 14:29:00,
2013-05-15 10:34:00,72.9,58.2,30.11,WSW,245,5.0,11.0,60,0.00,,---,0.00,VWS V14.01,2013-05-15 14:34:00,
2013-05-15 10:39:00,73.4,58.2,30.10,West,269,4.0,12.0,59,0.00,,---,0.00,VWS V14.01,2013-05-15 14:39:00,
2013-05-15 10:44:00,74.2,60.4,30.10,SSW,205,1.0,3.0,62,0.00,,---,0.00,VWS V14.01,2013-05-15 14:44:00,
2013-05-15 10:50:00,74.9,59.1,30.10,West,280,3.0,7.0,58,0.00,,---,0.00,VWS V14.01,2013-05-15 14:50:00,
2013-05-15 10:55:00,75.3,60.0,30.10,West,273,9.0,9.0,59,0.00,,---,0.00,VWS V14.01,2013-05-15 14:55:00,
2013-05-15 11:00:00,75.4,58.6,30.10,WSW,243,3.0,12.0,56,0.00,,---,0.00,VWS V14.01,2013-05-15 15:00:00,
2013-05-15 11:05:00,75.3,59.0,30.10,West,277,6.0,12.0,57,0.00,,---,0.00,VWS V14.01,2013-05-15 15:05:00,
2013-05-15 11:10:00,75.8,59.5,30.10,WNW,298,7.0,9.0,57,0.00,,---,0.00,VWS V14.01,2013-05-15 15:10:00,
2013-05-15 11:15:00,76.3,60.5,30.09,SW,222,2.0,8.0,58,0.00,,---,0.00,VWS V14.01,2013-05-15 15:15:00,
2013-05-15 11:20:00,76.5,60.2,30.09,West,280,2.0,9.0,57,0.00,,---,0.00,VWS V14.01,2013-05-15 15:20:00,
2013-05-15 11:25:00,77.0,59.6,30.09,West,273,5.0,8.0,55,0.00,,---,0.00,VWS V14.01,2013-05-15 15:25:00,
2013-05-15 11:31:00,77.6,60.7,30.09,West,281,3.0,8.0,56,0.00,,---,0.00,VWS V14.01,2013-05-15 15:31:00,
2013-05-15 11:36:00,78.0,60.0,30.09,WSW,243,0.0,11.0,54,0.00,,---,0.00,VWS V14.01,2013-05-15 15:36:00,
2013-05-15 11:41:00,78.3,60.8,30.09,SW,215,3.0,9.0,55,0.00,,---,0.00,VWS V14.01,2013-05-15 15:41:00,
2013-05-15 11:46:00,78.6,60.1,30.09,West,267,2.0,6.0,53,0.00,,---,0.00,VWS V14.01,2013-05-15 15:46:00,
2013-05-15 11:51:00,79.2,61.1,30.08,West,261,2.0,6.0,54,0.00,,---,0.00,VWS V14.01,2013-05-15 15:51:00,
2013-05-15 11:56:00,79.8,60.6,30.09,WSW,250,6.0,9.0,52,0.00,,---,0.00,VWS V14.01,2013-05-15 15:56:00,
2013-05-15 12:01:00,79.7,60.0,30.08,West,280,5.0,9.0,51,0.00,,---,0.00,VWS V14.01,2013-05-15 16:01:00,
2013-05-15 12:06:00,79.9,60.7,30.08,WSW,250,3.0,7.0,52,0.00,,---,0.00,VWS V14.01,2013-05-15 16:06:00,
2013-05-15 12:11:00,80.1,60.4,30.08,NW,305,0.0,6.0,51,0.00,,---,0.00,VWS V14.01,2013-05-15 16:11:00,
2013-05-15 12:16:00,80.5,60.7,30.08,WSW,249,6.0,13.0,51,0.00,,---,0.00,VWS V14.01,2013-05-15 16:16:00,
2013-05-15 12:21:00,80.2,59.9,30.08,WSW,246,11.0,12.0,50,0.00,,---,0.00,VWS V14.01,2013-05-15 16:21:00,
2013-05-15 12:26:00,80.0,59.7,30.08,SW,222,6.0,7.0,50,0.00,,---,0.00,VWS V14.01,2013-05-15 16:26:00,
2013-05-15 12:31:00,80.4,60.6,30.08,West,260,3.0,9.0,51,0.00,,---,0.00,VWS V14.01,2013-05-15 16:31:00,
2013-05-15 12:36:00,81.0,60.6,30.07,West,267,0.0,6.0,50,0.00,,---,0.00,VWS V14.01,2013-05-15 16:36:00,
2013-05-15 12:41:00,81.3,59.8,30.07,West,267,7.0,9.0,48,0.00,,---,0.00,VWS V14.01,2013-05-15 16:41:00,
2013-05-15 12:46:00,81.2,59.7,30.07,WNW,287,5.0,10.0,48,0.00,,---,0.00,VWS V14.01,2013-05-15 16:46:00,
2013-05-15 12:51:00,81.4,59.8,30.07,SW,233,3.0,11.0,48,0.00,,---,0.00,VWS V14.01,2013-05-15 16:51:00,
2013-05-15 12:56:00,81.5,58.8,30.07,West,271,4.0,10.0,46,0.00,,---,0.00,VWS V14.01,2013-05-15 16:56:00,
2013-05-15 13:01:00,81.6,60.0,30.06,West,262,4.0,11.0,48,0.00,,---,0.00,VWS V14.01,2013-05-15 17:01:00,
2013-05-15 13:06:00,82.4,60.2,30.06,West,270,5.0,6.0,47,0.00,,---,0.00,VWS V14.01,2013-05-15 17:06:00,
2013-05-15 13:11:00,82.7,59.8,30.06,West,270,4.0,6.0,46,0.00,,---,0.00,VWS V14.01,2013-05-15 17:11:00,
2013-05-15 13:16:00,82.9,58.8,30.06,WSW,248,3.0,6.0,44,0.00,,---,0.00,VWS V14.01,2013-05-15 17:16:00,
2013-05-15 13:22:00,83.1,59.0,30.06,WSW,238,5.0,11.0,44,0.00,,---,0.00,VWS V14.01,2013-05-15 17:22:00,
2013-05-15 13:27:00,83.0,58.9,30.05,SSW,212,5.0,9.0,44,0.00,,---,0.00,VWS V14.01,2013-05-15 17:27:00,
2013-05-15 13:32:00,83.0,58.9,30.05,West,273,5.0,7.0,44,0.00,,---,0.00,VWS V14.01,2013-05-15 17:32:00,
2013-05-15 13:37:00,83.2,59.7,30.05,SW,217,6.0,13.0,45,0.00,,---,0.00,VWS V14.01,2013-05-15 17:37:00,
2013-05-15 13:42:00,83.3,59.1,30.05,SSW,211,3.0,4.0,44,0.00,,---,0.00,VWS V14.01,2013-05-15 17:42:00,
2013-05-15 13:48:00,83.3,59.1,30.05,WSW,243,6.0,10.0,44,0.00,,---,0.00,VWS V14.01,2013-05-15 17:48:00,
2013-05-15 13:53:00,83.2,59.0,30.05,WSW,255,2.0,14.0,44,0.00,,---,0.00,VWS V14.01,2013-05-15 17:53:00,
2013-05-15 13:58:00,83.6,60.0,30.04,South,170,3.0,9.0,45,0.00,,---,0.00,VWS V14.01,2013-05-15 17:58:00,
2013-05-15 14:03:00,83.9,60.3,30.04,SW,214,4.0,7.0,45,0.00,,---,0.00,VWS V14.01,2013-05-15 18:03:00,
2013-05-15 14:08:00,84.2,60.6,30.04,WSW,257,9.0,9.0,45,0.00,,---,0.00,VWS V14.01,2013-05-15 18:08:00,
2013-05-15 14:13:00,84.7,59.1,30.04,South,184,2.0,9.0,42,0.00,,---,0.00,VWS V14.01,2013-05-15 18:13:00,
2013-05-15 14:19:00,84.4,59.5,30.03,WSW,249,7.0,10.0,43,0.00,,---,0.00,VWS V14.01,2013-05-15 18:19:00,
2013-05-15 14:24:00,84.3,59.4,30.03,WSW,239,10.0,12.0,43,0.00,,---,0.00,VWS V14.01,2013-05-15 18:24:00,
2013-05-15 14:29:00,84.2,60.6,30.03,SSW,203,4.0,11.0,45,0.00,,---,0.00,VWS V14.01,2013-05-15 18:29:00,
2013-05-15 14:34:00,84.5,60.2,30.03,SSW,200,10.0,11.0,44,0.00,,---,0.00,VWS V14.01,2013-05-15 18:34:00,
2013-05-15 14:39:00,84.6,60.3,30.03,SSW,201,3.0,9.0,44,0.00,,---,0.00,VWS V14.01,2013-05-15 18:39:00,
2013-05-15 14:44:00,85.2,61.5,30.02,West,276,7.0,7.0,45,0.00,,---,0.00,VWS V14.01,2013-05-15 18:44:00,
2013-05-15 14:49:00,85.4,58.4,30.02,SSW,211,5.0,13.0,40,0.00,,---,0.00,VWS V14.01,2013-05-15 18:49:00,
2013-05-15 14:54:00,85.5,60.5,30.02,West,276,1.0,11.0,43,0.00,,---,0.00,VWS V14.01,2013-05-15 18:54:00,
2013-05-15 14:59:00,85.9,60.8,30.02,East,101,1.0,7.0,43,0.00,,---,0.00,VWS V14.01,2013-05-15 18:59:00,
2013-05-15 15:04:00,86.2,59.8,30.02,SSW,211,6.0,10.0,41,0.00,,---,0.00,VWS V14.01,2013-05-15 19:04:00,
2013-05-15 15:09:00,86.2,60.4,30.01,SSW,207,5.0,8.0,42,0.00,,---,0.00,VWS V14.01,2013-05-15 19:09:00,
2013-05-15 15:14:00,86.2,60.4,30.01,SW,232,2.0,8.0,42,0.00,,---,0.00,VWS V14.01,2013-05-15 19:14:00,
2013-05-15 15:19:00,86.2,59.8,30.01,WSW,253,8.0,13.0,41,0.00,,---,0.00,VWS V14.01,2013-05-15 19:19:00,
2013-05-15 15:24:00,85.7,59.3,30.01,WSW,246,11.0,12.0,41,0.00,,---,0.00,VWS V14.01,2013-05-15 19:24:00,
2013-05-15 15:30:00,85.7,59.3,30.01,West,271,5.0,13.0,41,0.00,,---,0.00,VWS V14.01,2013-05-15 19:30:00,
2013-05-15 15:35:00,86.0,60.3,30.01,SSE,161,7.0,12.0,42,0.00,,---,0.00,VWS V14.01,2013-05-15 19:35:00,
2013-05-15 15:40:00,86.0,59.6,30.01,West,263,4.0,6.0,41,0.00,,---,0.00,VWS V14.01,2013-05-15 19:40:00,
2013-05-15 15:45:00,86.3,61.2,30.00,SSW,201,3.0,13.0,43,0.00,,---,0.00,VWS V14.01,2013-05-15 19:45:00,
2013-05-15 15:50:00,86.4,59.2,30.00,SW,225,5.0,11.0,40,0.00,,---,0.00,VWS V14.01,2013-05-15 19:50:00,
2013-05-15 15:55:00,86.4,60.6,30.00,SW,221,8.0,10.0,42,0.00,,---,0.00,VWS V14.01,2013-05-15 19:55:00,
2013-05-15 16:00:00,86.6,60.8,30.00,SE,141,3.0,8.0,42,0.00,,---,0.00,VWS V14.01,2013-05-15 20:00:00,
2013-05-15 16:05:00,87.0,61.2,30.00,SW,231,9.0,12.0,42,0.00,,---,0.00,VWS V14.01,2013-05-15 20:05:00,
2013-05-15 16:10:00,86.9,61.7,29.99,West,274,5.0,10.0,43,0.00,,---,0.00,VWS V14.01,2013-05-15 20:10:00,
2013-05-15 16:15:00,87.1,61.9,29.99,WSW,246,1.0,6.0,43,0.00,,---,0.00,VWS V14.01,2013-05-15 20:15:00,
2013-05-15 16:20:00,87.3,60.8,29.99,SW,222,1.0,14.0,41,0.00,,---,0.00,VWS V14.01,2013-05-15 20:20:00,
2013-05-15 16:25:00,86.9,61.1,29.99,SW,225,9.0,12.0,42,0.00,,---,0.00,VWS V14.01,2013-05-15 20:25:00,
2013-05-15 16:30:00,86.9,61.1,29.99,South,188,7.0,10.0,42,0.00,,---,0.00,VWS V14.01,2013-05-15 20:30:00,
2013-05-15 16:35:00,87.0,61.2,29.98,SW,221,6.0,10.0,42,0.00,,---,0.00,VWS V14.01,2013-05-15 20:35:00,
2013-05-15 16:41:00,87.3,61.4,29.98,SSW,193,3.0,7.0,42,0.00,,---,0.00,VWS V14.01,2013-05-15 20:41:00,
2013-05-15 16:46:00,87.3,60.0,29.98,WSW,238,10.0,12.0,40,0.00,,---,0.00,VWS V14.01,2013-05-15 20:46:00,
2013-05-15 16:51:00,87.1,60.6,29.98,SSW,208,3.0,13.0,41,0.00,,---,0.00,VWS V14.01,2013-05-15 20:51:00,
2013-05-15 16:56:00,87.1,60.6,29.98,SSW,212,5.0,5.0,41,0.00,,---,0.00,VWS V14.01,2013-05-15 20:56:00,
2013-05-15 17:01:00,87.2,60.7,29.97,ESE,121,5.0,7.0,41,0.00,,---,0.00,VWS V14.01,2013-05-15 21:01:00,
2013-05-15 17:06:00,87.3,61.4,29.97,ESE,120,0.0,4.0,42,0.00,,---,0.00,VWS V14.01,2013-05-15 21:06:00,
2013-05-15 17:12:00,87.2,60.7,29.97,SSW,200,6.0,6.0,41,0.00,,---,0.00,VWS V14.01,2013-05-15 21:12:00,
2013-05-15 17:17:00,87.3,61.4,29.97,WSW,238,10.0,11.0,42,0.00,,---,0.00,VWS V14.01,2013-05-15 21:17:00,
2013-05-15 17:22:00,87.3,61.4,29.97,WSW,249,10.0,13.0,42,0.00,,---,0.00,VWS V14.01,2013-05-15 21:22:00,
2013-05-15 17:27:00,87.0,61.2,29.97,SW,216,9.0,10.0,42,0.00,,---,0.00,VWS V14.01,2013-05-15 21:27:00,
2013-05-15 17:32:00,87.0,61.2,29.97,SSW,201,5.0,10.0,42,0.00,,---,0.00,VWS V14.01,2013-05-15 21:32:00,
2013-05-15 17:38:00,87.0,61.2,29.97,SW,236,7.0,8.0,42,0.00,,---,0.00,VWS V14.01,2013-05-15 21:38:00,
2013-05-15 17:43:00,87.1,61.2,29.97,SSW,193,5.0,11.0,42,0.00,,---,0.00,VWS V14.01,2013-05-15 21:43:00,
2013-05-15 17:48:00,87.1,61.9,29.97,SW,222,8.0,11.0,43,0.00,,---,0.00,VWS V14.01,2013-05-15 21:48:00,
2013-05-15 17:53:00,87.1,61.9,29.97,WSW,245,2.0,8.0,43,0.00,,---,0.00,VWS V14.01,2013-05-15 21:53:00,
2013-05-15 17:58:00,87.2,62.0,29.97,SW,229,8.0,10.0,43,0.00,,---,0.00,VWS V14.01,2013-05-15 21:58:00,
2013-05-15 18:03:00,87.0,61.2,29.97,SW,228,5.0,13.0,42,0.00,,---,0.00,VWS V14.01,2013-05-15 22:03:00,
2013-05-15 18:08:00,87.0,61.8,29.96,SW,215,5.0,13.0,43,0.00,,---,0.00,VWS V14.01,2013-05-15 22:08:00,
2013-05-15 18:14:00,86.8,61.6,29.96,WSW,246,12.0,12.0,43,0.00,,---,0.00,VWS V14.01,2013-05-15 22:14:00,
2013-05-15 18:19:00,86.8,61.6,29.96,SSW,211,3.0,9.0,43,0.00,,---,0.00,VWS V14.01,2013-05-15 22:19:00,
2013-05-15 18:24:00,86.8,61.6,29.96,SSW,197,5.0,13.0,43,0.00,,---,0.00,VWS V14.01,2013-05-15 22:24:00,
2013-05-15 18:29:00,86.6,60.8,29.96,SW,218,5.0,12.0,42,0.00,,---,0.00,VWS V14.01,2013-05-15 22:29:00,
2013-05-15 18:34:00,86.5,61.4,29.96,WSW,249,7.0,12.0,43,0.00,,---,0.00,VWS V14.01,2013-05-15 22:34:00,
2013-05-15 18:40:00,86.4,61.3,29.96,SW,229,5.0,11.0,43,0.00,,---,0.00,VWS V14.01,2013-05-15 22:40:00,
2013-05-15 18:45:00,86.3,61.2,29.96,WSW,247,5.0,9.0,43,0.00,,---,0.00,VWS V14.01,2013-05-15 22:45:00,
2013-05-15 18:50:00,86.1,61.7,29.96,WSW,246,2.0,9.0,44,0.00,,---,0.00,VWS V14.01,2013-05-15 22:50:00,
2013-05-15 18:55:00,86.0,60.9,29.96,SW,214,5.0,10.0,43,0.00,,---,0.00,VWS V14.01,2013-05-15 22:55:00,
2013-05-15 19:00:00,85.9,61.5,29.96,SE,146,4.0,11.0,44,0.00,,---,0.00,VWS V14.01,2013-05-15 23:00:00,
2013-05-15 19:06:00,85.8,61.4,29.95,SW,215,7.0,8.0,44,0.00,,---,0.00,VWS V14.01,2013-05-15 23:06:00,
2013-05-15 19:11:00,85.6,61.8,29.96,SSW,211,3.0,8.0,45,0.00,,---,0.00,VWS V14.01,2013-05-15 23:11:00,
2013-05-15 19:16:00,85.4,62.3,29.96,SW,235,1.0,6.0,46,0.00,,---,0.00,VWS V14.01,2013-05-15 23:16:00,
2013-05-15 19:21:00,85.4,62.3,29.96,WSW,246,3.0,6.0,46,0.00,,---,0.00,VWS V14.01,2013-05-15 23:21:00,
2013-05-15 19:26:00,85.2,62.1,29.96,West,262,4.0,7.0,46,0.00,,---,0.00,VWS V14.01,2013-05-15 23:26:00,
2013-05-15 19:31:00,85.0,62.5,29.96,WSW,238,3.0,6.0,47,0.00,,---,0.00,VWS V14.01,2013-05-15 23:31:00,
2013-05-15 19:36:00,84.7,61.7,29.96,WSW,253,1.0,1.0,46,0.00,,---,0.00,VWS V14.01,2013-05-15 23:36:00,
2013-05-15 19:41:00,84.3,61.3,29.96,WSW,238,2.0,5.0,46,0.00,,---,0.00,VWS V14.01,2013-05-15 23:41:00,
2013-05-15 19:46:00,84.0,61.6,29.96,WSW,239,4.0,5.0,47,0.00,,---,0.00,VWS V14.01,2013-05-15 23:46:00,
2013-05-15 19:51:00,83.7,61.3,29.96,SW,217,1.0,5.0,47,0.00,,---,0.00,VWS V14.01,2013-05-15 23:51:00,
2013-05-15 19:56:00,83.1,61.4,29.96,WSW,243,1.0,4.0,48,0.00,,---,0.00,VWS V14.01,2013-05-15 23:56:00,
2013-05-15 20:01:00,82.6,61.5,29.96,SW,228,3.0,3.0,49,0.00,,---,0.00,VWS V14.01,2013-05-16 00:01:00,
2013-05-15 20:06:00,82.1,62.2,29.96,SW,217,2.0,2.0,51,0.00,,---,0.00,VWS V14.01,2013-05-16 00:06:00,
2013-05-15 20:11:00,81.5,62.2,29.97,SSW,212,1.0,2.0,52,0.00,,---,0.00,VWS V14.01,2013-05-16 00:11:00,
2013-05-15 20:16:00,80.9,62.2,29.96,SSW,212,2.0,3.0,53,0.00,,---,0.00,VWS V14.01,2013-05-16 00:16:00,
2013-05-15 20:22:00,80.4,62.2,29.97,SW,228,2.0,3.0,54,0.00,,---,0.00,VWS V14.01,2013-05-16 00:22:00,
2013-05-15 20:27:00,79.8,62.2,29.97,SSW,208,2.0,2.0,55,0.00,,---,0.00,VWS V14.01,2013-05-16 00:27:00,
2013-05-15 20:32:00,79.3,62.3,29.97,SSW,212,2.0,5.0,56,0.00,,---,0.00,VWS V14.01,2013-05-16 00:32:00,
2013-05-15 20:37:00,78.8,62.3,29.97,SW,224,3.0,4.0,57,0.00,,---,0.00,VWS V14.01,2013-05-16 00:37:00,
2013-05-15 20:42:00,78.4,61.9,29.97,SW,228,3.0,4.0,57,0.00,,---,0.00,VWS V14.01,2013-05-16 00:42:00,
2013-05-15 20:48:00,78.0,62.0,29.97,SSW,211,4.0,4.0,58,0.00,,---,0.00,VWS V14.01,2013-05-16 00:48:00,
2013-05-15 20:53:00,77.8,61.9,29.97,SW,228,4.0,6.0,58,0.00,,---,0.00,VWS V14.01,2013-05-16 00:53:00,
2013-05-15 20:58:00,77.5,62.1,29.97,SSW,211,3.0,5.0,59,0.00,,---,0.00,VWS V14.01,2013-05-16 00:58:00,
2013-05-15 21:03:00,77.0,62.1,29.97,South,188,2.0,5.0,60,0.00,,---,0.00,VWS V14.01,2013-05-16 01:03:00,
2013-05-15 21:08:00,76.6,62.2,29.97,SW,217,3.0,5.0,61,0.00,,---,0.00,VWS V14.01,2013-05-16 01:08:00,
2013-05-15 21:13:00,76.4,62.0,29.97,SW,225,3.0,5.0,61,0.00,,---,0.00,VWS V14.01,2013-05-16 01:13:00,
2013-05-15 21:18:00,76.4,62.0,29.97,SW,224,4.0,6.0,61,0.00,,---,0.00,VWS V14.01,2013-05-16 01:18:00,
2013-05-15 21:24:00,76.4,62.0,29.98,SW,225,4.0,7.0,61,0.00,,---,0.00,VWS V14.01,2013-05-16 01:24:00,
2013-05-15 21:29:00,76.2,61.8,29.98,SW,215,4.0,5.0,61,0.00,,---,0.00,VWS V14.01,2013-05-16 01:29:00,
2013-05-15 21:35:00,76.1,61.7,29.98,WSW,249,3.0,5.0,61,0.00,,---,0.00,VWS V14.01,2013-05-16 01:35:00,
2013-05-15 21:40:00,76.1,61.7,29.98,SSW,212,3.0,6.0,61,0.00,,---,0.00,VWS V14.01,2013-05-16 01:40:00,
2013-05-15 21:45:00,76.0,61.6,29.98,SW,228,4.0,7.0,61,0.00,,---,0.00,VWS V14.01,2013-05-16 01:45:00,
2013-05-15 21:50:00,75.9,61.5,29.98,SW,228,4.0,5.0,61,0.00,,---,0.00,VWS V14.01,2013-05-16 01:50:00,
2013-05-15 21:55:00,75.7,61.8,29.98,SSW,211,5.0,6.0,62,0.00,,---,0.00,VWS V14.01,2013-05-16 01:55:00,
2013-05-15 22:00:00,75.4,61.5,29.98,SW,217,4.0,7.0,62,0.00,,---,0.00,VWS V14.01,2013-05-16 02:00:00,
2013-05-15 22:05:00,75.1,61.7,29.98,SSW,203,5.0,5.0,63,0.00,,---,0.00,VWS V14.01,2013-05-16 02:05:00,
2013-05-15 22:10:00,74.9,61.9,29.98,SW,224,3.0,7.0,64,0.00,,---,0.00,VWS V14.01,2013-05-16 02:10:00,
2013-05-15 22:15:00,74.7,61.7,29.99,SW,214,5.0,7.0,64,0.00,,---,0.00,VWS V14.01,2013-05-16 02:15:00,
2013-05-15 22:20:00,74.4,61.9,29.98,SW,214,3.0,8.0,65,0.00,,---,0.00,VWS V14.01,2013-05-16 02:20:00,
2013-05-15 22:25:00,74.4,61.9,29.99,SW,224,7.0,8.0,65,0.00,,---,0.00,VWS V14.01,2013-05-16 02:25:00,
2013-05-15 22:30:00,74.3,61.8,29.99,SW,222,4.0,8.0,65,0.00,,---,0.00,VWS V14.01,2013-05-16 02:30:00,
2013-05-15 22:35:00,74.1,61.6,29.99,SSW,204,4.0,7.0,65,0.00,,---,0.00,VWS V14.01,2013-05-16 02:35:00,
2013-05-15 22:40:00,73.8,61.7,29.99,South,184,5.0,6.0,66,0.00,,---,0.00,VWS V14.01,2013-05-16 02:40:00,
2013-05-15 22:46:00,73.5,61.9,29.99,SW,224,6.0,7.0,67,0.00,,---,0.00,VWS V14.01,2013-05-16 02:46:00,
2013-05-15 22:51:00,73.3,62.1,29.99,SSW,203,2.0,7.0,68,0.00,,---,0.00,VWS V14.01,2013-05-16 02:51:00,
2013-05-15 22:56:00,73.1,61.9,29.99,SSW,194,7.0,9.0,68,0.00,,---,0.00,VWS V14.01,2013-05-16 02:56:00,
2013-05-15 23:01:00,72.9,61.7,29.98,SSW,192,4.0,8.0,68,0.00,,---,0.00,VWS V14.01,2013-05-16 03:01:00,
2013-05-15 23:06:00,72.8,62.0,29.98,SW,222,5.0,9.0,69,0.00,,---,0.00,VWS V14.01,2013-05-16 03:06:00,
2013-05-15 23:11:00,72.7,62.0,29.98,SW,228,2.0,8.0,69,0.00,,---,0.00,VWS V14.01,2013-05-16 03:11:00,
2013-05-15 23:16:00,72.5,61.8,29.98,SSW,210,4.0,8.0,69,0.00,,---,0.00,VWS V14.01,2013-05-16 03:16:00,
2013-05-15 23:21:00,72.3,61.6,29.98,SSW,193,4.0,6.0,69,0.00,,---,0.00,VWS V14.01,2013-05-16 03:21:00,
2013-05-15 23:26:00,72.3,61.6,29.98,SW,224,4.0,8.0,69,0.00,,---,0.00,VWS V14.01,2013-05-16 03:26:00,
2013-05-15 23:31:00,72.2,61.5,29.98,WSW,249,7.0,9.0,69,0.00,,---,0.00,VWS V14.01,2013-05-16 03:31:00,
2013-05-15 23:36:00,72.4,61.7,29.98,SSW,203,5.0,10.0,69,0.00,,---,0.00,VWS V14.01,2013-05-16 03:36:00,
2013-05-15 23:41:00,72.4,61.2,29.98,SW,228,8.0,11.0,68,0.00,,---,0.00,VWS V14.01,2013-05-16 03:41:00,
2013-05-15 23:46:00,72.6,61.0,29.98,WSW,250,6.0,11.0,67,0.00,,---,0.00,VWS V14.01,2013-05-16 03:46:00,
2013-05-15 23:51:00,72.7,61.1,29.98,SSW,207,7.0,9.0,67,0.00,,---,0.00,VWS V14.01,2013-05-16 03:51:00,
2013-05-15 23:56:00,72.6,61.4,29.98,SSW,211,5.0,10.0,68,0.00,,---,0.00,VWS V14.01,2013-05-16 03:56:00,